ZIYUAN 3-02 (ZY 3-02)

Last updated on Mon Sep 07 2026 00:02:45 GMT+0000 (Coordinated Universal Time)

1 41556U 16033A 26249.61822819 .00003069 00000+0 14037-3 0 9999 2 41556 97.3778 323.8002 0013535 21.5651 338.6152 15.21203367570368
UTC large
Height (km)
Speed (km/s)
/
Latitude / Longitude
Inclination (degrees)
Orbital Period (minutes)
Azimuth
Elevation
Range (km)
Doppler Factor

Next 0 passes for location: London (51.5072 / 0.1276)

No passes found over London.
ZIYUAN 3-02 (ZY 3-02)